This is the latest recevied weather packets stored in our database for station/object KD5UMO-1. If no packets are shown the sender has not sent any weather packets the latest 10 day(s).
| Time | Temp. | Humidity | Pressure | Rain* | Wind** | Luminosity | Snow |
|---|---|---|---|---|---|---|---|
| 1777416241 | 26.11° C | 84% | 1009 hPa | 0 mm | - | 11 W/m² | - |
| 1777415941 | 26.11° C | 84% | 1009.1 hPa | 0 mm | - | 9 W/m² | - |
| 1777415636 | 26.11° C | 84% | 1009.2 hPa | 0 mm | - | 8 W/m² | - |
| 1777415332 | 26.67° C | 84% | 1009.5 hPa | 0 mm | - | 8 W/m² | - |
| 1777415027 | 26.67° C | 83% | 1009.6 hPa | 0 mm | - | 8 W/m² | - |
| 1777414726 | 26.67° C | 83% | 1009.6 hPa | 0 mm | - | 8 W/m² | - |
| 1777414423 | 26.67° C | 83% | 1009.3 hPa | 0 mm | - | 9 W/m² | - |
| 1777414122 | 26.67° C | 83% | 1009.7 hPa | 0 mm | - | 9 W/m² | - |
| 1777413818 | 26.67° C | 83% | 1009.8 hPa | 0 mm | - | 10 W/m² | - |
| 1777413512 | 26.67° C | 83% | 1009.6 hPa | 0 mm | - | 11 W/m² | - |
| 1777413209 | 26.67° C | 83% | 1010.3 hPa | 0 mm | - | 13 W/m² | - |
| 1777412905 | 26.67° C | 83% | 1010.4 hPa | 0 mm | - | 15 W/m² | - |
| 1777412599 | 26.67° C | 83% | 1010.2 hPa | 0 mm | - | 17 W/m² | - |
| 1777412296 | 26.67° C | 82% | 1010.6 hPa | 0 mm | - | 18 W/m² | - |
| 1777411992 | 26.67° C | 82% | 1010.6 hPa | 0 mm | - | 18 W/m² | - |
| 1777411690 | 26.67° C | 82% | 1010.3 hPa | 0 mm | - | 17 W/m² | - |
| 1777411386 | 26.67° C | 82% | 1010 hPa | 0 mm | - | 21 W/m² | - |
| 1777411085 | 26.67° C | 82% | 1010.1 hPa | 0 mm | - | 19 W/m² | - |
| 1777410780 | 26.67° C | 82% | 1010.1 hPa | 0 mm | - | 20 W/m² | - |
| 1777410479 | 26.67° C | 82% | 1010.1 hPa | 0 mm | - | 20 W/m² | - |
| 1777410178 | 26.67° C | 82% | 1010 hPa | 0 mm | - | 28 W/m² | - |
| 1777409874 | 26.67° C | 82% | 1010.2 hPa | 0 mm | - | 24 W/m² | - |
| 1777409570 | 26.67° C | 82% | 1009.8 hPa | 0 mm | - | 32 W/m² | - |
| 1777409265 | 27.22° C | 81% | 1010.2 hPa | 0 mm | - | 39 W/m² | - |
| 1777408961 | 27.22° C | 81% | 1010.2 hPa | 0 mm | - | 41 W/m² | - |
* Rain latest hour (hover to see other rain measurements)
** Current wind speed in m/s (hover to see current wind gust speed)